Date,TemperatureHighF,TemperatureAvgF,TemperatureLowF,DewpointHighF,DewpointAvgF,DewpointLowF,HumidityHigh,HumidityAvg,HumidityLow,PressureMaxIn,PressureMinIn,WindSpeedMaxMPH,WindSpeedAvgMPH,GustSpeedMaxMPH,PrecipitationSumIn
2013-9-1,87.8,77.7,69.6,68.2,62.4,54.9,82,61,42,29.95,29.88,10,2,13,0.00
2013-9-2,87.4,76.5,68.5,68.8,64.5,60.3,82,67,46,30.04,29.92,9,1,11,0.00
2013-9-3,88.7,79.1,70.0,67.0,60.5,55.2,69,54,39,30.07,30.00,13,2,13,0.00
2013-9-4,91.9,81.1,69.3,65.3,60.3,54.3,61,50,36,30.06,29.95,6,2,13,0.00
2013-9-5,89.2,78.6,69.8,69.3,64.0,56.8,75,62,45,29.95,29.78,8,1,11,0.00
2013-9-6,89.1,76.9,70.2,68.3,65.3,62.6,77,68,48,29.81,29.76,8,1,8,0.00
2013-9-7,88.7,79.0,70.2,74.1,69.8,63.3,86,74,56,29.98,29.85,8,1,11,0.00
2013-9-8,88.9,79.0,71.1,76.8,71.6,66.7,91,79,54,30.03,29.98,11,2,12,0.00
2013-9-9,83.5,78.1,72.0,74.8,71.9,68.4,91,81,72,30.03,29.93,13,3,13,0.00
2013-9-10,78.8,75.6,72.1,70.1,68.2,66.7,85,78,72,29.97,29.93,11,1,11,0.00
2013-9-11,82.6,74.3,66.7,73.4,68.1,65.7,99,82,65,29.91,29.84,14,2,14,0.14
2013-9-12,77.5,71.4,64.6,72.0,63.8,58.6,96,78,61,29.86,29.81,21,3,21,0.06
2013-9-13,80.2,70.7,64.4,64.9,61.8,59.1,84,74,55,29.98,29.83,9,2,10,0.00
2013-9-14,77.5,69.9,63.1,68.6,63.9,59.5,89,82,73,30.00,29.95,12,2,12,0.00
2013-9-15,78.1,72.2,63.3,67.4,65.0,60.6,96,79,67,29.91,29.62,6,1,11,0.07
2013-9-16,80.2,75.0,66.2,70.1,66.2,63.6,96,75,59,29.66,29.61,8,3,14,0.07
2013-9-17,76.8,71.1,63.5,72.4,62.6,59.2,96,75,64,29.61,29.53,24,5,24,0.18
2013-9-18,76.6,69.5,61.9,66.1,63.1,58.6,91,81,66,29.65,29.58,14,1,14,0.01
2013-9-19,79.3,71.9,64.4,69.9,64.9,59.6,95,79,66,29.73,29.58,15,2,15,0.02
2013-9-20,80.6,69.5,63.9,65.6,61.5,58.9,85,76,58,29.81,29.73,7,2,7,0.00
2013-9-21,86.7,75.3,64.6,66.9,62.3,57.8,87,67,41,29.96,29.90,15,2,15,0.00
2013-9-22,79.7,71.8,64.0,60.1,54.6,49.6,67,55,43,30.04,29.98,9,3,17,0.00
2013-9-23,79.2,70.4,62.1,58.8,55.4,51.2,70,60,48,30.03,29.92,14,4,14,0.00
2013-9-24,80.4,70.2,60.8,66.4,61.7,54.9,90,75,58,29.95,29.88,9,1,9,0.00
2013-9-25,77.9,69.9,63.3,68.0,63.8,60.3,91,81,67,29.92,29.85,13,1,13,0.00
2013-9-26,78.8,71.2,63.1,70.2,66.2,60.2,93,85,73,29.91,29.82,11,1,11,0.00
2013-9-27,79.7,72.8,65.8,72.6,69.2,64.1,97,89,77,29.87,29.80,11,1,11,0.00
2013-9-28,80.1,71.6,66.4,72.3,68.8,65.5,98,92,74,29.85,29.79,11,2,11,0.00
2013-9-29,79.7,71.3,65.7,71.6,67.3,63.9,95,88,70,29.75,29.67,9,1,10,0.00
2013-9-30,78.4,78.4,78.4,68.7,68.5,68.1,72,72,71,29.45,29.44,13,12,13,0.18